Wind_Speed
22 23 22 22 23 23 23 23 23 23 23 23 23 24 23 23 22 22 23 23 23 23 23 23 23 24 24 24 25 25 25 25 25 25 26 26 26 25 25 25 25 25 25
23 24 23 24 24 24 24 24 24 25 24 24 24 24 24 23 23 23 23 23 23 23 23 24 24 24 24 25 25 26 26 26 26 26 26 27 27 26 26 26 26 26 26
24 24 24 24 24 24 25 24 25 25 25 24 24 24 24 23 23 24 24 23 23 23 24 24 25 25 25 25 26 26 27 27 27 27 27 28 28 27 27 27 27 27 26
24 24 24 24 24 25 26 25 25 25 24 24 24 24 24 24 24 24 25 24 24 24 24 25 26 26 26 27 27 27 27 27 28 28 28 28 29 29 28 28 28 28 27
24 24 24 24 24 25 25 25 25 24 24 24 24 25 25 25 25 25 25 25 25 25 25 25 26 27 27 28 28 28 28 27 27 28 28 28 28 28 28 28 28 28 28
24 24 24 24 24 24 25 24 25 24 24 24 25 25 26 25 25 25 25 25 25 25 25 26 26 27 27 28 28 28 28 28 27 28 28 28 27 27 27 27 27 27 28
24 24 24 24 24 24 24 24 24 24 25 25 25 25 25 25 25 25 25 26 25 25 25 25 26 27 28 28 29 29 28 28 28 28 27 27 28 28 27 27 28 29 29
25 25 25 25 25 25 24 24 24 24 25 25 25 25 25 25 26 26 26 26 26 26 26 27 27 27 28 29 29 29 29 28 28 28 27 27 27 28 28 29 29 29 30
25 26 26 25 25 25 24 24 24 24 24 25 24 24 25 25 25 25 26 26 27 27 27 27 28 28 28 29 28 28 27 27 26 26 26 26 27 27 28 28 29 29 29
25 26 26 25 25 24 24 24 24 24 24 24 24 24 24 24 24 25 25 26 26 27 27 27 27 28 28 28 27 26 25 25 25 25 25 25 25 26 26 26 27 27 28
26 26 26 25 25 25 24 24 24 24 24 24 24 24 25 25 25 25 25 26 26 26 27 27 27 27 26 27 26 25 25 25 26 26 26 26 26 26 25 25 26 26 27
26 26 26 26 25 25 25 25 25 25 25 24 25 25 26 26 26 26 26 26 27 27 27 26 26 26 26 26 25 24 25 25 25 25 25 26 26 26 26 26 26 26 26
26 26 26 26 25 25 25 25 25 24 24 25 25 25 25 25 25 25 26 26 27 26 26 25 25 25 25 25 23 23 23 24 24 24 24 25 25 25 25 25 25 25 25
26 26 26 26 25 25 24 24 24 24 24 24 24 24 25 25 24 24 25 26 26 25 25 24 23 23 24 23 22 22 23 24 24 24 24 24 25 25 25 25 25 25 25
26 26 26 26 25 24 24 24 24 24 25 25 24 24 24 24 24 24 25 25 26 26 24 23 23 23 22 22 22 22 23 24 24 24 25 25 24 24 25 25 25 25 25
27 26 26 26 25 25 24 24 24 24 24 25 24 23 24 24 25 24 25 25 24 25 25 24 23 22 22 22 22 22 22 23 23 24 24 24 24 24 24 25 25 25 25
27 26 26 26 25 25 25 24 24 24 24 24 24 24 24 24 25 24 24 24 23 23 23 23 23 22 22 21 21 21 21 21 21 21 21 21 22 23 23 23 24 25 25
26 26 26 26 26 25 25 25 25 24 24 24 24 23 23 23 23 23 23 23 22 21 22 22 22 21 21 21 21 21 21 21 20 20 20 20 21 21 22 23 23 24 25
26 25 25 25 25 25 25 25 24 24 23 23 22 22 22 23 23 22 22 22 21 21 22 22 21 21 21 21 21 22 22 22 21 20 20 20 21 21 22 22 23 24 24
25 25 24 24 24 25 25 25 24 23 23 23 23 23 22 22 22 23 23 22 22 22 22 22 22 21 21 22 22 23 23 22 22 22 22 22 22 22 22 23 24 25 26
25 25 26 26 25 25 25 25 24 24 24 24 23 23 23 23 23 23 23 23 23 23 22 23 23 22 22 22 22 22 22 22 22 22 22 23 23 24 24 24 25 26 26
24 24 25 25 26 25 26 25 25 25 24 24 24 24 24 24 23 23 23 23 23 23 23 23 23 23 22 21 21 21 21 22 23 24 24 24 24 25 25 25 26 27 27
24 25 25 25 25 25 25 25 25 25 25 25 25 24 24 24 23 23 24 24 24 24 24 23 23 23 23 23 24 23 23 24 24 25 25 25 25 26 26 27 27 28 28
24 24 25 25 25 25 24 24 25 25 25 24 24 24 24 24 24 24 24 24 24 24 24 24 23 23 23 23 24 24 24 24 25 25 26 25 26 27 27 27 28 28 28
22 23 24 24 24 25 25 25 25 25 24 24 24 24 24 23 23 24 24 24 24 24 24 23 23 23 23 24 24 24 25 25 26 26 26 26 26 26 27 27 27 27 26
22 23 23 23 24 24 25 25 26 25 25 25 25 24 24 24 24 24 24 24 24 24 23 23 23 23 24 24 25 25 26 26 26 26 26 26 26 26 27 27 26 26 26
Wind_Direction
268 268 268 270 270 271 274 274 272 273 276 276 276 275 274 273 274 275 277 276 275 274 275 276 277 278 280 279 279 279 277 276 276 275 274 273 272 271 271 271 269 266 265
269 268 269 271 270 271 273 273 272 273 275 276 276 276 275 274 274 275 277 277 276 275 275 276 277 280 281 281 280 279 278 277 276 274 273 272 271 271 272 270 270 268 266
269 268 269 271 271 272 273 274 272 272 273 275 277 276 276 275 275 275 277 278 277 276 275 275 277 279 281 281 281 280 279 278 276 274 273 272 271 271 272 270 270 269 267
270 269 270 271 271 272 273 273 273 273 273 274 275 276 277 276 275 277 277 278 278 278 277 278 280 281 281 280 280 280 280 279 277 275 273 272 270 270 270 269 269 268 266
270 269 270 272 272 273 274 272 273 273 274 275 275 276 278 279 278 278 278 279 279 280 280 280 280 281 282 281 280 280 280 280 278 276 273 272 270 269 269 268 267 267 265
270 270 271 273 273 274 273 273 273 273 275 276 276 277 278 278 279 279 280 280 280 280 281 282 282 282 283 282 281 280 280 279 278 276 274 271 269 268 267 267 267 266 266
270 271 272 273 273 274 273 272 273 273 275 276 277 277 277 278 279 280 281 281 281 281 282 283 284 284 286 284 281 281 280 278 277 276 274 272 269 269 268 267 266 267 267
271 272 272 273 274 274 273 272 274 274 274 275 276 277 279 279 279 281 282 281 281 282 283 284 284 284 286 287 283 280 278 277 276 275 274 272 270 269 269 268 267 266 266
272 272 272 273 274 273 272 273 274 275 275 275 276 277 280 281 281 282 283 282 283 283 283 284 285 285 286 287 284 279 277 276 275 275 274 273 272 271 271 271 269 267 266
270 271 271 272 274 275 272 273 275 276 276 276 276 277 279 282 282 284 285 286 286 286 285 284 285 286 286 287 285 280 277 275 274 274 274 274 273 272 271 272 271 269 267
268 269 270 271 273 274 273 273 275 277 277 277 277 279 280 282 284 285 286 288 288 288 287 286 286 286 286 286 284 280 278 276 276 275 274 273 272 272 272 272 272 272 269
267 269 270 271 272 275 274 273 275 276 279 280 280 281 283 283 284 286 288 289 289 289 288 287 286 286 286 285 282 280 278 276 275 274 274 273 272 272 272 272 272 272 270
267 268 269 270 274 275 276 276 276 278 280 282 282 282 283 285 285 286 288 289 288 289 288 288 286 287 288 287 282 280 280 277 277 276 275 273 272 271 271 271 271 270 268
265 267 268 269 272 274 275 276 277 279 281 283 284 283 284 285 286 287 289 289 289 288 288 288 288 289 288 288 283 281 281 280 279 278 277 275 273 273 272 271 271 270 269
264 267 268 269 270 272 273 275 276 279 281 282 281 283 284 285 286 288 290 290 289 288 288 289 289 289 288 286 284 283 282 282 280 277 275 274 273 272 272 271 271 270 269
265 266 267 268 269 270 271 274 276 279 281 281 278 279 283 285 286 288 289 288 287 288 288 289 290 289 288 286 285 284 283 283 281 278 275 274 272 272 271 271 271 270 271
264 264 265 267 268 269 272 274 276 279 281 281 280 281 284 286 288 288 290 289 287 287 288 289 288 286 286 285 284 284 284 284 283 281 277 275 274 273 273 273 272 272 272
263 263 264 265 266 268 272 273 275 277 279 280 281 282 283 285 285 287 291 291 290 291 292 290 287 285 286 285 284 284 284 283 284 283 278 276 277 277 277 276 274 273 274
263 263 264 265 267 269 270 272 274 275 276 277 278 279 282 283 283 286 289 290 289 290 291 290 287 286 286 285 286 289 289 286 284 283 280 278 279 279 278 278 277 276 276
262 262 263 265 267 268 269 270 272 274 276 276 276 277 280 282 283 285 288 289 289 290 290 289 289 287 285 285 288 289 288 287 284 284 281 278 277 277 278 279 280 279 278
261 262 262 264 266 267 270 272 274 275 276 276 277 277 278 280 282 284 286 287 288 289 289 287 286 286 285 285 286 287 286 284 283 285 283 280 277 277 278 280 281 279 279
263 263 264 266 267 268 270 272 273 274 274 274 274 275 277 279 281 283 285 286 287 289 289 287 285 285 283 282 285 286 285 285 284 285 284 282 279 279 279 280 282 280 280
265 264 265 265 265 267 268 269 270 270 272 273 274 275 276 278 280 282 283 285 286 287 288 287 285 284 284 285 286 285 285 286 285 284 284 283 281 279 279 281 281 281 280
264 262 264 265 265 266 267 268 268 268 268 271 273 274 275 278 280 281 283 284 286 287 288 287 285 284 285 286 288 288 288 288 288 285 285 284 281 279 280 282 282 281 280
264 264 264 265 265 266 266 266 266 266 267 269 271 273 275 278 280 282 283 284 285 285 286 286 286 284 285 287 289 290 289 289 290 289 287 285 283 282 282 283 283 281 279
266 266 265 265 266 268 268 267 267 267 268 269 270 272 274 276 278 282 283 284 285 285 286 286 285 285 285 287 288 289 289 289 289 289 287 286 285 285 285 285 284 282 280
Height
5790 5789 5788 5788 5788 5787 5787 5786 5785 5785 5784 5783 5782 5781 5780 5779 5778 5777 5776 5775 5773 5772 5771 5770 5770 5769 5767 5766 5765 5764 5763 5762 5761 5761 5760 5759 5759 5758 5758 5758 5758 5758 5758
5783 5783 5782 5782 5781 5781 5780 5779 5779 5778 5777 5776 5775 5774 5772 5772 5771 5770 5769 5768 5767 5765 5764 5763 5762 5761 5760 5759 5757 5756 5754 5753 5753 5753 5752 5751 5751 5751 5750 5750 5750 5750 5750
5777 5776 5776 5775 5775 5774 5773 5772 5771 5770 5769 5768 5767 5766 5765 5764 5764 5763 5762 5761 5759 5758 5757 5755 5754 5753 5752 5750 5749 5748 5746 5745 5744 5744 5743 5743 5742 5742 5742 5742 5741 5742 5742
5770 5769 5769 5768 5768 5767 5766 5765 5764 5763 5762 5761 5760 5759 5758 5757 5756 5755 5754 5753 5752 5750 5749 5748 5746 5745 5743 5742 5740 5739 5738 5736 5735 5735 5734 5734 5733 5733 5733 5733 5733 5733 5734
5763 5762 5762 5761 5760 5759 5758 5758 5757 5756 5755 5754 5753 5752 5751 5750 5749 5748 5746 5745 5744 5742 5741 5739 5738 5736 5735 5733 5731 5730 5729 5727 5727 5726 5725 5725 5724 5724 5724 5724 5725 5725 5725
5756 5755 5755 5754 5753 5752 5751 5750 5750 5749 5748 5747 5746 5744 5743 5742 5741 5740 5738 5737 5736 5734 5733 5731 5729 5728 5726 5724 5722 5721 5720 5718 5718 5717 5716 5716 5716 5716 5716 5716 5716 5717 5717
5749 5748 5747 5747 5746 5745 5744 5743 5742 5741 5740 5739 5738 5737 5735 5734 5733 5732 5730 5729 5727 5726 5724 5723 5721 5719 5717 5715 5713 5711 5710 5709 5708 5708 5707 5707 5707 5707 5707 5708 5708 5708 5709
5741 5741 5740 5740 5739 5738 5737 5736 5735 5734 5732 5731 5730 5729 5728 5726 5725 5723 5722 5720 5719 5717 5716 5714 5712 5710 5707 5705 5703 5702 5700 5700 5699 5699 5699 5699 5698 5698 5698 5699 5699 5699 5699
5734 5733 5733 5732 5731 5731 5730 5729 5727 5726 5725 5724 5723 5721 5720 5718 5717 5715 5713 5712 5710 5708 5706 5704 5702 5700 5698 5695 5693 5692 5691 5691 5690 5690 5690 5689 5689 5689 5689 5689 5689 5689 5690
5726 5726 5725 5725 5724 5723 5722 5721 5720 5719 5718 5716 5715 5714 5712 5711 5709 5707 5705 5704 5702 5700 5697 5695 5693 5691 5689 5686 5684 5683 5682 5682 5682 5681 5681 5681 5680 5680 5680 5679 5679 5680 5680
5718 5718 5717 5717 5716 5715 5715 5714 5713 5712 5710 5709 5708 5707 5705 5703 5702 5700 5697 5695 5693 5690 5688 5686 5684 5681 5679 5677 5676 5674 5674 5673 5673 5673 5673 5672 5672 5672 5671 5671 5671 5671 5671
5710 5710 5710 5709 5708 5708 5707 5706 5705 5704 5703 5702 5700 5699 5697 5695 5694 5692 5690 5687 5684 5682 5679 5677 5675 5673 5671 5669 5667 5666 5665 5665 5664 5664 5664 5664 5663 5663 5663 5663 5662 5662 5662
5702 5702 5702 5701 5701 5700 5699 5698 5698 5697 5695 5694 5693 5691 5689 5687 5686 5684 5681 5679 5676 5673 5671 5668 5666 5664 5662 5661 5659 5659 5658 5657 5656 5656 5655 5655 5655 5655 5654 5654 5654 5654 5654
5694 5694 5694 5693 5693 5692 5692 5691 5690 5689 5688 5686 5685 5684 5682 5680 5678 5676 5674 5671 5669 5666 5663 5661 5659 5657 5655 5653 5652 5651 5650 5650 5649 5648 5648 5647 5647 5646 5646 5646 5646 5646 5646
5685 5686 5685 5685 5685 5685 5684 5683 5683 5682 5680 5679 5677 5676 5674 5673 5671 5669 5666 5664 5661 5658 5656 5654 5652 5650 5648 5646 5645 5644 5643 5642 5641 5640 5640 5639 5639 5638 5638 5637 5637 5637 5637
5677 5677 5677 5677 5677 5677 5676 5676 5675 5674 5673 5671 5669 5668 5667 5665 5663 5661 5659 5656 5654 5651 5649 5647 5645 5643 5641 5640 5638 5637 5636 5635 5634 5632 5632 5631 5630 5630 5630 5629 5629 5629 5629
5668 5669 5669 5669 5669 5669 5669 5668 5667 5666 5665 5663 5662 5661 5659 5657 5655 5653 5651 5649 5646 5644 5642 5640 5638 5636 5635 5633 5632 5631 5629 5628 5626 5625 5624 5623 5622 5622 5621 5621 5621 5621 5621
5660 5660 5660 5661 5661 5661 5660 5660 5659 5658 5657 5656 5654 5653 5652 5650 5648 5646 5644 5642 5640 5638 5636 5633 5632 5630 5629 5627 5625 5624 5622 5621 5619 5618 5617 5616 5615 5614 5614 5613 5613 5613 5612
5651 5652 5652 5652 5652 5652 5652 5652 5651 5650 5649 5648 5647 5646 5644 5643 5641 5639 5637 5636 5634 5632 5629 5627 5625 5623 5622 5620 5619 5617 5615 5614 5612 5611 5610 5609 5608 5607 5607 5606 5605 5605 5604
5643 5644 5644 5644 5644 5644 5644 5643 5643 5642 5641 5640 5640 5639 5637 5636 5634 5633 5631 5629 5627 5625 5623 5620 5618 5616 5615 5614 5612 5610 5609 5607 5606 5604 5603 5602 5601 5600 5599 5598 5597 5597 5596
5635 5635 5636 5636 5636 5636 5635 5635 5635 5634 5633 5633 5632 5631 5630 5629 5627 5626 5624 5622 5620 5618 5616 5614 5612 5610 5608 5607 5605 5603 5602 5600 5599 5597 5596 5595 5594 5593 5592 5590 5589 5588 5587
5626 5627 5627 5627 5627 5627 5627 5627 5626 5626 5625 5625 5624 5623 5622 5621 5620 5618 5617 5615 5613 5611 5609 5607 5605 5603 5602 5600 5598 5597 5595 5593 5592 5590 5588 5587 5586 5585 5583 5582 5581 5579 5578
5618 5618 5619 5619 5619 5618 5618 5618 5618 5617 5617 5616 5616 5615 5614 5614 5612 5611 5609 5608 5606 5604 5602 5600 5598 5597 5595 5593 5591 5589 5588 5586 5584 5582 5580 5579 5577 5576 5575 5573 5572 5570 5569
5610 5610 5610 5610 5610 5610 5610 5609 5609 5609 5609 5609 5608 5608 5607 5606 5605 5603 5602 5600 5598 5597 5595 5593 5591 5589 5588 5586 5584 5582 5580 5578 5576 5574 5572 5570 5569 5567 5566 5564 5563 5561 5560
5601 5601 5602 5602 5602 5601 5601 5601 5601 5601 5601 5601 5600 5600 5599 5598 5597 5596 5594 5592 5591 5589 5587 5585 5584 5582 5580 5579 5577 5575 5573 5570 5568 5566 5564 5562 5560 5559 5557 5556 5554 5552 5551
5594 5593 5593 5593 5593 5593 5593 5593 5593 5593 5593 5592 5592 5592 5591 5590 5589 5588 5586 5584 5583 5581 5579 5578 5576 5574 5573 5571 5569 5567 5565 5563 5560 5558 5556 5554 5552 5550 5549 5547 5545 5543 5542